FW7930 Weather Reports


time (UTC)temp
C
wind
direction
speed
KPH
gust
KPH
rain 1hr
cm
rain 24hr
cm
rain mn
cm
humidity
%
barometer
mb
20260504081506 3 269 0.0 0.0 0.00 0.00 0.00 84 1015.0
20260504044557 4 269 0.0 0.0 0.00 0.00 0.00 77 1015.3
20260504043045 4 269 0.0 0.0 0.00 0.00 0.00 77 1015.2
20260504041542 4 269 0.0 0.0 0.00 0.00 0.00 77 1015.2
20260504040041 4 271 0.0 0.0 0.00 0.00 0.00 75 1015.0
20260504034550 5 271 0.0 0.0 0.00 0.00 0.00 75 1014.8
20260504033050 5 271 0.0 0.0 0.00 0.00 0.00 71 1015.0
20260504031537 5 271 0.0 0.0 0.00 0.00 0.00 70 1014.9
20260504030037 6 271 0.0 0.0 0.00 0.00 0.00 69 1014.8
20260504024515 6 271 0.0 0.0 0.00 0.00 0.00 67 1014.8
20260504023008 6 271 0.0 0.0 0.00 0.00 0.00 65 1014.7
20260504021537 7 271 0.0 0.0 0.00 0.00 0.00 63 1014.7
20260504020036 7 271 0.0 0.0 0.00 0.00 0.00 63 1014.7
20260504014536 8 271 0.0 0.0 0.00 0.00 0.00 58 1014.6
20260504013037 8 271 0.0 0.0 0.00 0.00 0.00 57 1014.6
20260504011533 9 271 0.0 0.0 0.00 0.00 0.00 55 1014.4
20260504010046 10 271 0.0 0.0 0.00 0.00 0.00 50 1014.3
20260504004529 10 271 0.0 4.8 0.00 0.00 0.00 51 1014.2
20260504003028 11 286 0.0 0.0 0.00 0.00 0.00 45 1014.0
20260504001528 12 286 0.0 0.0 0.00 0.00 0.00 43 1013.9
20260504000027 12 286 0.0 0.0 0.00 0.00 0.00 39 1013.8
20260503234555 13 286 0.0 0.0 0.00 0.00 0.00 39 1013.7
20260503233055 13 286 0.0 6.4 0.00 0.00 0.00 39 1013.6
20260503231654 13 328 0.0 12.9 0.00 0.00 0.00 37 1013.3
20260503230052 13 40 1.6 12.9 0.00 0.00 0.00 36 1013.3
20260503224550 14 5 0.0 6.4 0.00 0.00 0.00 36 1013.4
20260503223050 14 349 3.2 19.3 0.00 0.00 0.00 35 1013.4
20260503221547 15 348 3.2 11.3 0.00 0.00 0.00 36 1013.4
20260503220104 15 344 0.0 8.0 0.00 0.00 0.00 37 1013.5
20260503214547 15 355 6.4 19.3 0.00 0.00 0.00 35 1013.6
20260503213049 15 338 4.8 17.7 0.00 0.00 0.00 35 1013.5
20260503211600 15 333 3.2 12.9 0.00 0.00 0.00 36 1013.5
20260503210044 15 300 0.0 19.3 0.00 0.00 0.00 37 1013.4
20260503204551 15 355 1.6 9.7 0.00 0.00 0.00 37 1013.5
20260503203043 15 231 4.8 16.1 0.00 0.00 0.00 36 1013.5
20260503201540 15 23 1.6 12.9 0.00 0.00 0.00 37 1013.6
20260503200039 15 341 4.8 19.3 0.00 0.00 0.00 35 1013.8
20260503194536 14 22 3.2 12.9 0.00 0.00 0.00 35 1014.1
20260503193042 14 186 3.2 22.5 0.00 0.00 0.00 39 1014.4
20260503191536 14 5 6.4 9.7 0.00 0.00 0.00 40 1014.5
20260503190030 13 344 3.2 16.1 0.00 0.00 0.00 37 1014.5
20260503184529 13 325 3.2 14.5 0.00 0.00 0.00 41 1014.9
20260503183035 12 5 8.0 19.3 0.00 0.00 0.00 41 1015.1
20260503181549 13 313 4.8 19.3 0.00 0.00 0.00 39 1015.0
20260503180023 12 329 1.6 12.9 0.00 0.00 0.00 47 1015.2
20260503174521 12 298 3.2 20.9 0.00 0.00 0.00 43 1015.2
20260503173039 12 234 3.2 16.1 0.00 0.00 0.00 46 1015.4
20260503171517 11 257 0.0 9.7 0.00 0.00 0.00 48 1015.4
20260503160106 9 329 4.8 20.9 0.00 0.00 0.00 47 1016.1
20260503150105 8 355 3.2 22.5 0.00 0.00 0.00 47 1016.2